DW5033 Weather Reports


Display with metric or nautical units.
time (UTC)temp
F
wind
direction
speed
MPH
gust
MPH
rain 1hr
in
rain 24hr
in
rain mn
in
humidity
%
barometer
mb
20260504173041 79 61 5.0 10.0 0.00 0.00 0.00 58 1013.7
20260504172540 79 121 5.0 11.0 0.00 0.00 0.00 58 1013.8
20260504172039 79 76 4.0 15.0 0.00 0.00 0.00 57 1013.9
20260504171540 79 134 4.0 10.0 0.00 0.00 0.00 58 1013.9
20260504171038 79 360 6.0 14.0 0.00 0.00 0.00 59 1014.0
20260504170537 78 105 8.0 14.0 0.00 0.00 0.00 58 1014.0
20260504151029 76 55 8.0 13.0 0.00 0.00 0.00 63 1015.2
20260504150528 76 18 9.0 18.0 0.00 0.00 0.00 64 1015.1
20260504141038 74 101 8.0 15.0 0.00 0.00 0.00 68 1014.9
20260504140536 74 82 8.0 14.0 0.00 0.00 0.00 68 1014.8
20260504130540 71 85 10.0 15.0 0.00 0.00 0.00 72 1014.6
20260504110530 64 45 2.0 4.0 0.00 0.00 0.00 82 1013.9
20260504100532 65 23 2.0 5.0 0.00 0.00 0.00 81 1013.7
20260504081534 67 50 4.0 6.0 0.00 0.00 0.00 79 1013.5
20260504081049 67 34 3.0 6.0 0.00 0.00 0.00 79 1013.5
20260504080528 67 68 3.0 6.0 0.00 0.00 0.00 78 1013.7
20260504050532 71 72 2.0 6.0 0.00 0.00 0.00 75 1014.5
20260504045527 71 98 5.0 8.0 0.00 0.00 0.00 75 1014.5
20260504045025 71 86 3.0 7.0 0.00 0.00 0.00 75 1014.4
20260504044525 71 63 4.0 7.0 0.00 0.00 0.00 75 1014.3
20260504044043 71 88 3.0 9.0 0.00 0.00 0.00 75 1014.5
20260504043557 71 88 3.0 8.0 0.00 0.00 0.00 75 1014.7
20260504043052 71 90 4.0 8.0 0.00 0.00 0.00 74 1014.9
20260504042528 72 78 2.0 4.0 0.00 0.00 0.00 74 1015.0
20260504042027 72 87 2.0 6.0 0.00 0.00 0.00 74 1015.1
20260504041528 72 89 3.0 6.0 0.00 0.00 0.00 74 1015.1
20260504041025 72 77 3.0 4.0 0.00 0.00 0.00 74 1015.2
20260504040543 72 97 2.0 6.0 0.00 0.00 0.00 74 1015.3
20260504040039 72 96 4.0 6.0 0.00 0.00 0.00 73 1015.3
20260504035539 72 58 3.0 6.0 0.00 0.00 0.00 74 1015.3
20260504035037 72 102 3.0 8.0 0.00 0.00 0.00 73 1015.3
20260504034537 72 112 5.0 9.0 0.00 0.00 0.00 73 1015.2
20260504034100 72 105 5.0 9.0 0.00 0.00 0.00 73 1015.2
20260504033540 72 71 5.0 9.0 0.00 0.00 0.00 73 1015.2
20260504033040 72 97 4.0 8.0 0.00 0.00 0.00 73 1015.2
20260504032536 73 101 5.0 8.0 0.00 0.00 0.00 73 1015.3
20260504032059 73 93 3.0 6.0 0.00 0.00 0.00 73 1015.1
20260504031534 73 103 3.0 5.0 0.00 0.00 0.00 73 1015.1
20260504031046 73 71 2.0 4.0 0.00 0.00 0.00 72 1015.1
20260504030526 73 61 2.0 4.0 0.00 0.00 0.00 72 1015.0
20260504030045 73 60 1.0 3.0 0.00 0.00 0.00 72 1014.9
20260504025541 73 60 2.0 3.0 0.00 0.00 0.00 71 1015.0
20260504025039 73 59 2.0 3.0 0.00 0.00 0.00 71 1014.9
20260504024539 73 59 2.0 5.0 0.00 0.00 0.00 71 1014.8
20260504024035 73 81 2.0 5.0 0.00 0.00 0.00 71 1014.8
20260504023536 73 76 2.0 4.0 0.00 0.00 0.00 71 1014.7
20260504023100 73 65 3.0 5.0 0.00 0.00 0.00 71 1014.8
20260504022537 73 63 2.0 5.0 0.00 0.00 0.00 70 1014.9
20260504022036 73 46 2.0 3.0 0.00 0.00 0.00 70 1014.8
20260504021555 73 32 1.0 5.0 0.00 0.00 0.00 70 1014.7
20260504021027 73 34 3.0 5.0 0.00 0.00 0.00 69 1014.5
20260504020525 73 41 3.0 5.0 0.00 0.00 0.00 69 1014.5
20260504020024 73 32 3.0 6.0 0.00 0.00 0.00 69 1014.6
20260504015543 73 75 3.0 8.0 0.00 0.00 0.00 69 1014.6
20260504015041 73 85 5.0 8.0 0.00 0.00 0.00 70 1014.4
20260504014539 73 13 3.0 6.0 0.00 0.00 0.00 70 1014.4
20260504014035 73 47 2.0 4.0 0.00 0.00 0.00 70 1014.2
20260504013534 73 59 2.0 4.0 0.00 0.00 0.00 70 1014.3
20260504013100 73 5 0.0 3.0 0.00 0.00 0.00 70 1014.1
20260504012602 73 5 1.0 3.0 0.00 0.00 0.00 70 1014.0
20260504012102 73 5 1.0 3.0 0.00 0.00 0.00 69 1013.9
20260504011540 73 10 2.0 3.0 0.00 0.00 0.00 69 1013.7
20260504011058 73 10 2.0 6.0 0.00 0.00 0.00 69 1013.6
20260504010536 73 332 3.0 6.0 0.00 0.00 0.00 69 1013.7
20260504005558 73 19 2.0 5.0 0.00 0.00 0.00 69 1013.5
20260504005029 74 345 2.0 5.0 0.00 0.00 0.00 69 1013.4
20260504004530 74 330 3.0 5.0 0.00 0.00 0.00 69 1013.4
20260504004028 74 346 2.0 4.0 0.00 0.00 0.00 69 1013.4
20260504003528 74 30 1.0 5.0 0.00 0.00 0.00 69 1013.3
20260504003028 74 355 3.0 5.0 0.00 0.00 0.00 68 1013.3
20260504002526 74 5 2.0 5.0 0.00 0.00 0.00 68 1013.1
20260504002044 74 26 2.0 7.0 0.00 0.00 0.00 68 1013.0
20260504001541 75 331 3.0 7.0 0.00 0.00 0.00 68 1013.1
20260504001039 75 336 3.0 5.0 0.00 0.00 0.00 67 1013.0
20260504000540 75 5 3.0 8.0 0.00 0.00 0.00 68 1012.9
20260504000035 75 336 2.0 8.0 0.00 0.00 0.00 68 1012.8
20260503235532 75 334 3.0 6.0 0.00 0.00 0.00 67 1012.9
20260503235028 76 339 4.0 6.0 0.00 0.00 0.00 67 1012.8
20260503234527 76 355 1.0 6.0 0.00 0.00 0.00 67 1012.9
20260503234024 76 319 3.0 6.0 0.00 0.00 0.00 67 1012.8
20260503233542 77 330 4.0 10.0 0.00 0.00 0.00 66 1012.8
20260503233041 77 319 6.0 10.0 0.00 0.00 0.00 65 1012.8
20260503232541 78 332 5.0 10.0 0.00 0.00 0.00 65 1012.8
20260503232038 78 22 5.0 10.0 0.00 0.00 0.00 64 1012.8
20260503231538 80 336 3.0 5.0 0.00 0.00 0.00 61 1012.8
20260503231053 80 341 3.0 6.0 0.00 0.00 0.00 58 1012.7
20260503230532 80 63 3.0 8.0 0.00 0.00 0.00 57 1012.6
20260503230028 80 33 5.0 9.0 0.00 0.00 0.00 57 1012.6
20260503225525 80 102 3.0 9.0 0.00 0.00 0.00 62 1012.5
20260503225043 80 79 4.0 5.0 0.00 0.00 0.00 58 1012.5
20260503224543 80 60 2.0 8.0 0.00 0.00 0.00 59 1012.6
20260503224040 80 70 4.0 8.0 0.00 0.00 0.00 58 1012.5
20260503223535 80 67 1.0 8.0 0.00 0.00 0.00 58 1012.6
20260503223030 80 360 2.0 8.0 0.00 0.02 0.00 58 1012.6
20260503222529 80 12 3.0 8.0 0.00 0.02 0.00 58 1012.6
20260503222026 81 28 4.0 10.0 0.00 0.02 0.00 56 1012.6
20260503221548 80 344 3.0 5.0 0.00 0.02 0.00 57 1012.6
20260503221024 80 15 3.0 6.0 0.00 0.02 0.00 58 1012.7
20260503220543 80 5 3.0 9.0 0.00 0.02 0.00 58 1012.6
20260503220042 80 360 4.0 8.0 0.00 0.02 0.00 57 1012.7
20260503215540 80 55 3.0 11.0 0.00 0.02 0.00 57 1012.8
20260503215100 80 63 6.0 11.0 0.00 0.02 0.00 57 1012.7
20260503214604 80 69 5.0 8.0 0.00 0.02 0.00 57 1012.6
20260503214038 80 5 2.0 9.0 0.00 0.02 0.00 58 1012.6
20260503213536 80 64 5.0 9.0 0.00 0.02 0.00 57 1012.6
20260503213058 80 340 3.0 9.0 0.00 0.03 0.00 58 1012.7
20260503212601 80 13 4.0 9.0 0.00 0.03 0.00 59 1012.7
20260503212059 79 29 4.0 9.0 0.00 0.03 0.00 58 1012.7
20260503211557 80 88 3.0 5.0 0.00 0.03 0.00 57 1012.7
20260503211036 79 33 1.0 8.0 0.00 0.03 0.00 57 1012.8
20260503210539 79 58 3.0 11.0 0.00 0.03 0.00 57 1012.8
20260503210039 79 17 4.0 11.0 0.00 0.03 0.00 58 1012.8
20260503205536 80 75 4.0 9.0 0.00 0.03 0.00 58 1012.9
20260503205034 79 15 3.0 9.0 0.00 0.03 0.00 60 1012.8
20260503204554 79 339 2.0 10.0 0.00 0.03 0.00 60 1012.8
20260503204050 79 41 6.0 12.0 0.00 0.03 0.00 59 1012.8
20260503203529 79 50 8.0 12.0 0.00 0.03 0.00 59 1013.0
20260503203047 79 344 3.0 8.0 0.00 0.05 0.00 61 1013.0
20260503202544 79 53 3.0 9.0 0.00 0.05 0.00 61 1013.1
20260503202041 78 76 4.0 9.0 0.00 0.05 0.00 63 1013.1
20260503201541 78 110 3.0 9.0 0.00 0.05 0.00 62 1013.1
20260503201038 78 79 4.0 7.0 0.00 0.05 0.00 63 1013.2
20260503200557 78 61 4.0 10.0 0.00 0.05 0.00 62 1013.4
20260503200056 78 82 7.0 11.0 0.00 0.05 0.00 63 1013.5
20260503195531 78 121 7.0 11.0 0.00 0.05 0.00 63 1013.6
20260503195030 78 134 4.0 9.0 0.00 0.05 0.00 64 1013.6
20260503194529 78 360 6.0 9.0 0.00 0.05 0.00 62 1013.7
20260503194024 77 40 5.0 11.0 0.00 0.05 0.00 63 1013.8
20260503193525 77 67 6.0 11.0 0.00 0.05 0.00 63 1013.9
20260503193024 77 27 4.0 11.0 0.00 0.47 0.00 64 1013.9
20260503192604 77 98 7.0 10.0 0.00 0.47 0.00 63 1014.0
20260503192039 77 99 7.0 10.0 0.00 0.47 0.00 64 1014.0
20260503191538 77 15 4.0 9.0 0.00 0.47 0.00 65 1014.2
20260503191033 77 44 6.0 9.0 0.00 0.47 0.00 63 1014.4
20260503190530 77 24 4.0 11.0 0.00 0.47 0.00 65 1014.5
20260503190029 77 96 4.0 8.0 0.00 0.47 0.00 67 1014.6
20260503185526 76 69 4.0 12.0 0.00 0.47 0.00 66 1014.6
20260503185024 76 80 9.0 12.0 0.00 0.47 0.00 66 1014.7
20260503184525 76 84 6.0 9.0 0.00 0.47 0.00 66 1014.8
20260503184058 76 73 2.0 13.0 0.00 0.47 0.00 66 1014.8
20260503183536 76 69 6.0 14.0 0.00 0.47 0.00 65 1014.8
20260503183032 76 88 8.0 15.0 0.00 0.47 0.00 67 1015.0
20260503182529 76 116 10.0 14.0 0.00 0.47 0.00 67 1015.0
20260503182025 76 71 6.0 11.0 0.00 0.47 0.00 67 1015.0
20260503181525 75 81 8.0 11.0 0.00 0.47 0.00 67 1015.1
20260503181041 75 112 2.0 11.0 0.00 0.47 0.00 67 1015.2
20260503180558 75 98 7.0 14.0 0.00 0.47 0.00 67 1015.3
20260503180100 75 123 8.0 12.0 0.00 0.47 0.00 67 1015.2
20260503175558 75 52 3.0 10.0 0.00 0.47 0.00 68 1015.2
20260503175036 75 5 4.0 12.0 0.00 0.47 0.00 67 1015.3
20260503174536 75 117 7.0 15.0 0.00 0.47 0.00 67 1015.2
20260503174033 75 17 4.0 10.0 0.00 0.47 0.00 67 1015.3
20260503173531 75 51 3.0 12.0 0.00 0.47 0.00 68 1015.4